Robstown, TX

2:21 AM CDT on June 25, 2017 (GMT -0500)
Robstown

Weather History for KRBO - October, 2012

Change the Weather History Date:

Tuesday, October 9, 2012

  Actual Average (KCRP) Record (KCRP)
Temperature  
Mean Temperature 77 °F -  
Max Temperature 89 °F 82 °F 96 °F (1962)
Min Temperature 65 °F 64 °F 44 °F (2000)
Cooling Degree Days 12    
Growing Degree Days 27 (Base 50)    
Moisture  
Dew Point 65 °F    
Average Humidity 68    
Maximum Humidity 85    
Minimum Humidity 47    
Precipitation  
Precipitation 0.00 in - - ()
Sea Level Pressure  
Sea Level Pressure 30.01 in    
Wind  
Wind Speed 7 mph (ESE)    
Max Wind Speed 20 mph    
Max Gust Speed 23 mph    
Visibility 10 miles    
Events Rain    
Averages and records for this station are not official NWS values.
T = Trace of Precipitation, MM = Missing Value Source: NWS Daily Summary

Daily Weather History Graph

Daily Weather History Graph

Search for Another Location

Airport or City:

Trip Planner

Search our weather history database for the weather conditions in past years. The results will help you decide how hot, cold, wet, or windy it might be!

Date:

Astronomy

Oct. 09, 2012 Rise Set
Actual Time 7:27 AM CDT 7:07 PM CDT
Civil Twilight 7:04 AM CDT 7:30 PM CDT
Nautical Twilight 6:37 AM CDT 7:57 PM CDT
Astronomical Twilight 6:10 AM CDT 8:25 PM CDT
Moon 1:35 AM CDT (10/9) 3:08 PM CDT (10/9)
Length of Visible Light 12h 26m
Length of Day
11h 39m
Last Quarter, 36% of the Moon is Illuminated
Oct 9
Last Quarter
Oct 15
New
Oct 21
First Quarter
Oct 29
Full
Nov 6
Last Quarter

Hourly Weather History & Observations

Time (CDT) Temp. Heat Index Dew Point Humidity Pressure Visibility Wind Dir Wind Speed Gust Speed Precip Events Conditions
12:15 AM 69.4 °F - 58.3 °F 68% 30.09 in 10.0 mi East 6.9 mph - N/A   Overcast
12:35 AM 69.1 °F - 58.1 °F 68% 30.08 in 10.0 mi East 9.2 mph - N/A Rain Rain
12:55 AM 68.9 °F - 58.8 °F 70% 30.07 in 10.0 mi East 6.9 mph - N/A   Overcast
1:15 AM 68.9 °F - 59.2 °F 71% 30.07 in 10.0 mi East 6.9 mph - N/A Rain Light Rain
1:35 AM 68.9 °F - 59.4 °F 72% 30.05 in 10.0 mi ENE 6.9 mph - N/A Rain Light Rain
1:55 AM 68.4 °F - 59.5 °F 73% 30.06 in 10.0 mi ENE 3.5 mph - N/A   Mostly Cloudy
2:15 AM 68.2 °F - 59.9 °F 75% 30.05 in 10.0 mi Calm Calm - N/A Rain Rain
2:35 AM 67.8 °F - 59.4 °F 74% 30.05 in 10.0 mi Calm Calm - N/A Rain Rain
2:55 AM 67.3 °F - 59.2 °F 75% 30.05 in 10.0 mi Calm Calm - N/A   Mostly Cloudy
3:15 AM 66.4 °F - 58.6 °F 76% 30.04 in 10.0 mi North 3.5 mph - N/A   Mostly Cloudy
3:35 AM 67.1 °F - 59.2 °F 76% 30.04 in 10.0 mi North 3.5 mph - N/A   Overcast
3:55 AM 67.1 °F - 58.6 °F 74% 30.04 in 10.0 mi North 3.5 mph - N/A   Overcast
4:15 AM 67.3 °F - 59.0 °F 75% 30.04 in 10.0 mi North 5.8 mph - N/A Rain Rain
4:35 AM 67.1 °F - 58.8 °F 75% 30.03 in 10.0 mi NNE 6.9 mph - N/A Rain Light Rain
4:55 AM 66.7 °F - 59.0 °F 76% 30.02 in 10.0 mi NNE 3.5 mph - N/A   Overcast
5:15 AM 66.7 °F - 59.0 °F 76% 30.02 in 10.0 mi North 3.5 mph - N/A   Mostly Cloudy
5:35 AM 66.2 °F - 59.0 °F 78% 30.03 in 10.0 mi Calm Calm - N/A   Scattered Clouds
5:55 AM 66.0 °F - 58.6 °F 77% 30.03 in 10.0 mi NW 4.6 mph - N/A   Mostly Cloudy
6:15 AM 66.0 °F - 58.6 °F 77% 30.03 in 10.0 mi NNW 4.6 mph - N/A Rain Rain
6:35 AM 65.7 °F - 59.0 °F 79% 30.03 in 10.0 mi NNW 4.6 mph - N/A   Mostly Cloudy
6:55 AM 65.3 °F - 58.5 °F 78% 30.03 in 10.0 mi North 4.6 mph - N/A   Scattered Clouds
7:15 AM 65.3 °F - 58.6 °F 79% 30.03 in 10.0 mi North 5.8 mph - N/A Rain Light Rain
7:55 AM 65.5 °F - 59.0 °F 80% 30.04 in 10.0 mi NNW 5.8 mph - N/A Rain Rain
8:15 AM 66.4 °F - 59.4 °F 78% 30.04 in 10.0 mi North 4.6 mph - N/A Rain Rain
8:35 AM 67.3 °F - 59.9 °F 77% 30.05 in 10.0 mi North 4.6 mph - N/A Rain Rain
8:55 AM 69.1 °F - 60.8 °F 75% 30.05 in 10.0 mi Calm Calm - N/A   Mostly Cloudy
9:15 AM 70.9 °F - 61.3 °F 72% 30.06 in 10.0 mi Calm Calm - N/A   Mostly Cloudy
9:35 AM 72.0 °F - 62.6 °F 72% 30.07 in 10.0 mi Calm Calm - N/A   Mostly Cloudy
9:55 AM 74.1 °F - 63.5 °F 69% 30.07 in 10.0 mi Calm Calm - N/A   Mostly Cloudy
10:15 AM 76.8 °F - 65.3 °F 67% 30.06 in 10.0 mi Calm Calm - N/A   Scattered Clouds
10:35 AM 79.7 °F - 66.4 °F 64% 30.06 in 10.0 mi SE 3.5 mph - N/A   Mostly Cloudy
10:55 AM 81.7 °F 84.3 °F 67.5 °F 62% 30.06 in 10.0 mi SE 11.5 mph 16.1 mph N/A   Scattered Clouds
11:15 AM 83.8 °F 87.0 °F 68.2 °F 59% 30.05 in 10.0 mi SSE 11.5 mph - N/A   Scattered Clouds
11:35 AM 84.6 °F 87.6 °F 68.0 °F 57% 30.05 in 10.0 mi South 13.8 mph 20.7 mph N/A   Scattered Clouds
11:55 AM 85.1 °F 87.9 °F 67.5 °F 55% 30.04 in 10.0 mi SSE 13.8 mph - N/A   Scattered Clouds
12:15 PM 85.5 °F 88.2 °F 67.1 °F 54% 30.03 in 10.0 mi SE 15.0 mph 18.4 mph N/A   Mostly Cloudy
12:35 PM 87.1 °F 89.5 °F 66.4 °F 50% 30.02 in 10.0 mi South 11.5 mph 18.4 mph N/A   Mostly Cloudy
12:55 PM 86.9 °F 89.6 °F 66.9 °F 51% 30.01 in 10.0 mi South 12.7 mph 20.7 mph N/A   Mostly Cloudy
1:15 PM 86.2 °F 88.8 °F 66.9 °F 52% 30.00 in 10.0 mi SSE 11.5 mph 18.4 mph N/A   Mostly Cloudy
1:35 PM 86.9 °F 89.9 °F 67.1 °F 52% 29.99 in 10.0 mi SSE 12.7 mph 20.7 mph N/A   Mostly Cloudy
1:55 PM 87.4 °F 89.8 °F 66.4 °F 49% 29.98 in 10.0 mi SSE 16.1 mph - N/A   Mostly Cloudy
2:15 PM 88.3 °F 90.9 °F 66.4 °F 48% 29.97 in 10.0 mi South 13.8 mph 18.4 mph N/A   Mostly Cloudy
2:35 PM 89.1 °F 91.7 °F 66.6 °F 47% 29.96 in 10.0 mi SSE 11.5 mph - N/A   Scattered Clouds
2:55 PM 89.1 °F 91.7 °F 66.6 °F 47% 29.95 in 10.0 mi South 12.7 mph 18.4 mph N/A   Mostly Cloudy
3:15 PM 89.1 °F 92.1 °F 66.9 °F 48% 29.94 in 10.0 mi SSE 13.8 mph - N/A   Mostly Cloudy
3:35 PM 88.5 °F 91.9 °F 68.0 °F 50% 29.94 in 10.0 mi SE 10.4 mph 23.0 mph N/A   Mostly Cloudy
3:55 PM 88.2 °F 91.7 °F 68.2 °F 51% 29.94 in 10.0 mi SE 16.1 mph - N/A   Mostly Cloudy
4:15 PM 88.2 °F 92.1 °F 68.7 °F 52% 29.94 in 10.0 mi SSE 15.0 mph 20.7 mph N/A   Mostly Cloudy
4:35 PM 87.8 °F 91.8 °F 68.7 °F 53% 29.93 in 10.0 mi ESE 15.0 mph 21.9 mph N/A   Scattered Clouds
4:55 PM 86.5 °F 90.7 °F 68.9 °F 56% 29.93 in 10.0 mi SE 17.3 mph 21.9 mph N/A   Scattered Clouds
5:15 PM 86.5 °F 90.7 °F 69.1 °F 56% 29.93 in 10.0 mi SE 18.4 mph 21.9 mph N/A   Scattered Clouds
5:35 PM 85.8 °F 90.1 °F 69.3 °F 58% 29.93 in 10.0 mi SE 19.6 mph 23.0 mph N/A   Scattered Clouds
5:55 PM 84.9 °F 88.8 °F 69.1 °F 59% 29.94 in 10.0 mi SE 18.4 mph 21.9 mph N/A   Scattered Clouds
6:15 PM 83.8 °F 87.5 °F 68.9 °F 61% 29.94 in 10.0 mi SE 17.3 mph 21.9 mph N/A   Clear
6:35 PM 82.8 °F 86.4 °F 69.3 °F 64% 29.94 in 10.0 mi SE 16.1 mph - N/A   Clear
6:55 PM 81.9 °F 85.2 °F 69.3 °F 65% 29.94 in 10.0 mi SE 17.3 mph 21.9 mph N/A   Clear
7:15 PM 81.1 °F 84.4 °F 69.4 °F 67% 29.95 in 10.0 mi SE 16.1 mph - N/A   Clear
7:35 PM 80.6 °F 83.9 °F 69.8 °F 70% 29.95 in 10.0 mi SE 13.8 mph - N/A   Clear
7:55 PM 80.1 °F 83.3 °F 70.2 °F 72% 29.95 in 10.0 mi SE 12.7 mph - N/A   Clear
8:15 PM 79.7 °F - 70.7 °F 74% 29.96 in 10.0 mi SE 11.5 mph - N/A   Clear
8:35 PM 79.0 °F - 70.7 °F 76% 29.97 in 10.0 mi SE 9.2 mph - N/A   Clear
8:55 PM 78.4 °F - 70.7 °F 77% 29.97 in 10.0 mi SE 9.2 mph - N/A   Clear
9:15 PM 78.1 °F - 70.7 °F 78% 29.98 in 10.0 mi SE 9.2 mph - N/A   Clear
9:35 PM 77.9 °F - 70.7 °F 78% 29.98 in 10.0 mi SE 8.1 mph - N/A   Clear
9:55 PM 77.4 °F - 70.9 °F 80% 29.98 in 10.0 mi SE 8.1 mph - N/A   Clear
10:15 PM 77.0 °F - 70.9 °F 81% 29.99 in 10.0 mi SE 8.1 mph - N/A   Clear
10:35 PM 76.6 °F - 70.9 °F 82% 29.99 in 10.0 mi SE 6.9 mph - N/A   Clear
10:55 PM 76.3 °F - 70.9 °F 83% 29.99 in 10.0 mi SE 6.9 mph - N/A   Clear
11:15 PM 76.5 °F - 71.4 °F 84% 29.99 in 10.0 mi SSE 6.9 mph - N/A   Clear
11:35 PM 76.5 °F - 71.6 °F 85% 29.99 in 10.0 mi SSE 6.9 mph - N/A   Clear
11:55 PM 76.5 °F - 71.8 °F 85% 29.99 in 10.0 mi SSE 6.9 mph - N/A   Clear